Hourly Data Report for July 04, 2021

WINDSOR A
ONTARIO
Current Station Operator: NAVCAN

42°16'34.000" N
82°57'19.000" W
189.60 m
6139530
71538
YQG

Download Data

Hourly Data (July 2021)
Hourly Data Report for July 4, 2021
TIME
LST
Temp Definition
°C
Dew Point Definition
°C
Rel Hum Definition
%
Precip. Amount Definition
mm

Wind Dir Definition
10's deg

Wind Spd Definition
km/h
Visibility Definition
km
Stn Press Definition
kPa
Hmdx Definition


Wind Chill Definition


Weather Definition


00:00 20.5 18.3 87 0.0 24 11 16.1 98.78 27   LegendNANA
01:00 20.9 18.1 84 0.0 LegendMM 4 16.1 98.76 27   LegendNANA
02:00 19.3 17.6 90 0.0 26 8 16.1 98.77     LegendNANA
03:00 19.5 17.6 89 0.0 31 9 16.1 98.79     LegendNANA
04:00 19.5 18.2 92 0.0 35 11 16.1 98.84     LegendNANA
05:00 19.1 17.1 88 0.0 32 11 16.1 98.89     LegendNANA
06:00 19.1 17.5 90 0.0 30 8 16.1 98.95     LegendNANA
07:00 22.0 16.8 72 0.0 33 5 16.1 99.00 27   LegendNANA
08:00 24.4 16.1 59 0.0 36 5 16.1 99.03 29   LegendNANA
09:00 25.8 15.4 52 0.0 1 9 16.1 99.05 30   LegendNANA
10:00 26.6 16.6 54 0.0 7 8 16.1 99.05 32   LegendNANA
11:00 27.0 16.4 52 0.0 5 5 9.7 99.05 32   Haze
12:00 28.6 17.2 50 0.0 LegendMM 4 16.1 99.04 34   LegendNANA
13:00 29.5 16.1 44 0.0 26 15 16.1 99.04 34   LegendNANA
14:00 30.2 17.9 47 0.0 21 9 16.1 99.02 36   LegendNANA
15:00 30.2 20.2 54 0.0 22 13 16.1 99.02 38   LegendNANA
16:00 30.4 19.9 53 0.0 19 15 16.1 98.99 38   LegendNANA
17:00 30.0 20.5 56 0.0 21 18 16.1 98.99 38   LegendNANA
18:00 28.6 19.0 55 0.0 19 17 16.1 99.02 35   LegendNANA
19:00 27.4 19.7 62 0.0 16 9 16.1 99.06 35   LegendNANA
20:00 25.3 19.6 70 0.0 15 5 16.1 99.06 33   LegendNANA
21:00 23.3 20.1 82 0.0 17 5 12.9 99.09 31   LegendNANA
22:00 22.6 19.8 84 0.0 16 5 16.1 99.12 30   LegendNANA
23:00 22.3 20.1 87 0.0 17 5 16.1 99.15 30   LegendNANA

Notes on Data Quality.

Legend

  • E = Estimated
  • M = Missing
  • NA = Not Available*
  • [empty] = Indicates an unobserved value
Date modified: